South Lake Tahoe, CA

9:58 AM PST on January 19, 2018 (GMT -0800)
Lake Tahoe

Weather History for KTVL - September, 2014

Change the Weather History Date:

Tuesday, September 9, 2014

  Actual Average Record
Temperature  
Mean Temperature 56 °F 56 °F  
Max Temperature 78 °F 76 °F 88 °F (1988)
Min Temperature 34 °F 36 °F 29 °F (1979)
Degree Days  
Heating Degree Days 9 9  
Month to date heating degree days 43 76  
Since 1 July heating degree days 146 372  
Cooling Degree Days 0 0  
Month to date cooling degree days 0 0  
Year to date cooling degree days 96 30  
Growing Degree Days 5 (Base 50)    
Moisture  
Dew Point 25 °F    
Average Humidity 39    
Maximum Humidity 64    
Minimum Humidity 14    
Precipitation  
Precipitation 0.00 in - 0.45 in (1985)
Month to date precipitation 0.01  
Year to date precipitation 14.60  
Sea Level Pressure  
Sea Level Pressure 30.05 in    
Wind  
Wind Speed 3 mph (South)    
Max Wind Speed 14 mph    
Max Gust Speed 17 mph    
Visibility 10 miles    
Events      
T = Trace of Precipitation, MM = Missing Value Source: NWS Daily Summary

Daily Weather History Graph

Daily Weather History Graph

Search for Another Location

Airport or City:

Trip Planner

Search our weather history database for the weather conditions in past years. The results will help you decide how hot, cold, wet, or windy it might be!

Date:

Astronomy

Sep. 09, 2014 Rise Set
Actual Time 6:36 AM PDT 7:17 PM PDT
Civil Twilight 6:09 AM PDT 7:44 PM PDT
Nautical Twilight 5:37 AM PDT 8:16 PM PDT
Astronomical Twilight 5:04 AM PDT 8:48 PM PDT
Moon 7:41 PM PDT (9/9) 7:18 AM PDT (9/9)
Length of Visible Light 13h 35m
Length of Day
12h 41m
Full, 99% of the Moon is Illuminated
Sep 9
Full
Sep 15
Last Quarter
Sep 23
New
Oct 1
First Quarter
Oct 8
Full

Hourly Weather History & Observations

Time (PDT) Temp. Windchill Dew Point Humidity Pressure Visibility Wind Dir Wind Speed Gust Speed Precip Events Conditions
12:53 AM 46.0 °F - 27.0 °F 47% 30.01 in 10.0 mi Calm Calm - N/A   Clear
1:53 AM 43.0 °F - 27.0 °F 53% 30.02 in 10.0 mi Calm Calm - N/A   Clear
2:53 AM 41.0 °F 39.0 °F 26.1 °F 55% 30.03 in 10.0 mi South 3.5 mph - N/A   Clear
3:53 AM 39.0 °F - 25.0 °F 57% 30.04 in 10.0 mi Calm Calm - N/A   Clear
4:53 AM 37.0 °F 34.5 °F 25.0 °F 62% 30.04 in 10.0 mi SSW 3.5 mph - N/A   Clear
5:53 AM 35.1 °F 32.2 °F 24.1 °F 64% 30.07 in 10.0 mi South 3.5 mph - N/A   Clear
6:53 AM 35.1 °F - 24.1 °F 64% 30.09 in 10.0 mi Calm Calm - N/A   Clear
7:53 AM 42.1 °F 39.2 °F 26.1 °F 53% 30.10 in 10.0 mi South 4.6 mph - N/A   Clear
8:53 AM 54.0 °F - 24.1 °F 31% 30.09 in 10.0 mi Calm Calm - N/A   Clear
9:53 AM 64.0 °F - 19.9 °F 18% 30.06 in 10.0 mi Calm Calm - N/A   Clear
10:53 AM 68.0 °F - 24.1 °F 19% 30.06 in 10.0 mi NNE 6.9 mph - N/A   Clear
12:53 PM 73.9 °F - 26.1 °F 17% 30.04 in 10.0 mi Variable 5.8 mph - N/A   Clear
2:53 PM 75.9 °F - 25.0 °F 15% 30.01 in 10.0 mi Variable 6.9 mph - N/A   Clear
3:53 PM 75.9 °F - 23.0 °F 14% 30.01 in 10.0 mi Variable 5.8 mph 17.3 mph N/A   Clear
4:53 PM 75.9 °F - 24.1 °F 15% 30.01 in 10.0 mi Variable 4.6 mph - N/A   Clear
5:53 PM 73.0 °F - 21.9 °F 15% 30.03 in 10.0 mi Variable 3.5 mph - N/A   Clear
6:53 PM 66.0 °F - 27.0 °F 23% 30.06 in 10.0 mi Calm Calm - N/A   Clear
7:53 PM 59.0 °F - 26.1 °F 28% 30.07 in 10.0 mi Calm Calm - N/A   Clear
8:53 PM 54.0 °F - 27.0 °F 35% 30.07 in 10.0 mi Calm Calm - N/A   Clear
9:53 PM 52.0 °F - 28.9 °F 41% 30.06 in 10.0 mi Calm Calm - N/A   Clear
10:53 PM 50.0 °F - 27.0 °F 41% 30.06 in 10.0 mi Calm Calm - N/A   Clear
11:53 PM 46.0 °F - 28.9 °F 51% 30.07 in 10.0 mi Calm Calm - N/A   Clear